Theta_e
339 339 336 333 336 342 344 345 345 345 346 346 346 346 345 345 344 344 345 344 345 345 344 343 343 345 345 346 344 340 333 329 329 331 331 331 330 329 328 328 328 327 328 328 329 330 331 334 335 337 338 340 342 343 344 345 345 346 346 346 346 346 345 345 343 341 338 336 335 335 335 336 337 338 339 339 339 340 340 340 339 339 339 338 338
340 339 339 339 340 343 345 345 346 346 346 346 346 346 345 344 343 343 344 345 344 344 344 343 344 344 343 343 342 340 338 335 333 333 332 331 330 329 328 328 327 327 328 328 329 330 332 334 336 337 338 340 342 343 344 345 346 346 346 347 347 347 347 346 346 346 344 343 341 340 340 339 339 338 338 338 338 339 339 339 339 339 338 338 337
342 342 343 343 343 344 346 346 347 347 347 346 346 346 345 345 345 344 344 345 345 343 344 344 345 345 345 344 343 343 341 337 335 335 333 331 330 328 328 327 327 327 327 328 329 330 332 334 336 337 339 340 342 343 344 345 346 346 347 347 347 346 347 346 346 346 346 346 346 345 344 344 343 342 342 341 340 340 339 339 340 340 340 339 338
342 344 345 344 342 345 346 347 347 347 348 347 346 346 346 346 345 345 345 346 345 343 344 345 345 346 346 346 344 343 342 338 335 334 333 330 329 328 328 328 328 327 327 327 328 329 332 334 336 337 339 340 342 343 344 345 346 346 347 347 346 346 346 345 345 346 346 346 347 346 346 346 346 346 346 346 345 345 343 341 340 341 341 341 341
343 345 346 344 343 346 347 347 347 347 348 347 346 346 346 345 345 346 345 345 345 344 344 344 345 345 346 346 344 343 342 340 335 332 332 330 328 328 328 328 328 327 327 327 328 330 332 334 336 337 339 340 342 343 344 345 345 346 346 346 345 345 345 345 345 345 346 347 347 347 347 346 346 346 346 347 348 348 347 346 344 342 341 341 341
344 345 345 344 344 346 346 346 347 348 348 347 346 345 345 345 345 345 345 345 345 344 343 344 344 345 345 345 344 342 341 340 336 332 330 329 329 329 328 328 327 327 327 327 328 330 333 335 337 338 339 341 342 343 344 344 345 345 345 345 345 344 345 345 346 346 346 348 348 347 347 346 345 345 346 346 346 346 346 347 347 345 343 342 341
345 345 344 343 345 346 346 346 347 348 348 348 347 345 344 345 345 344 345 345 344 343 343 342 343 344 345 344 344 343 341 340 336 333 330 329 328 328 327 327 327 327 327 327 328 330 333 335 338 339 340 341 342 343 343 344 344 344 344 344 344 345 346 346 347 347 347 349 348 347 347 345 344 345 345 343 343 343 341 342 344 345 345 344 343
345 345 343 343 345 346 346 346 347 348 348 349 347 345 345 345 345 344 345 344 343 342 342 341 342 343 343 343 343 343 341 339 337 335 333 332 329 328 329 327 326 327 326 327 329 330 333 335 337 338 338 340 341 342 343 343 343 344 344 345 345 345 346 347 348 347 348 349 348 346 346 345 345 344 343 342 342 339 336 337 339 341 343 343 343
344 344 344 345 346 346 346 346 347 348 348 349 347 344 345 345 344 345 345 345 343 342 341 340 341 342 341 341 341 341 340 339 338 337 336 335 332 332 333 332 331 330 329 328 328 330 332 334 336 337 338 339 339 341 342 342 343 344 345 345 346 346 347 347 347 347 348 348 347 346 346 346 344 343 343 343 340 335 333 335 337 337 338 339 340
344 344 345 346 345 346 347 348 348 348 348 349 347 345 344 344 344 345 346 345 343 342 341 341 342 341 340 340 341 341 340 339 340 338 337 336 336 336 336 336 336 334 333 332 331 331 332 334 335 335 336 338 338 339 340 342 343 344 345 346 346 346 346 347 347 347 348 348 347 346 346 344 343 344 344 340 336 333 334 335 335 335 336 336 337
345 345 346 345 345 346 347 348 348 348 348 348 347 345 343 343 344 344 346 345 344 343 342 342 342 342 341 340 340 341 340 340 340 340 339 338 338 338 337 337 336 335 335 335 335 335 334 335 336 335 336 336 336 338 339 341 343 344 345 346 346 345 345 346 346 347 347 348 348 346 344 343 345 346 342 336 336 336 336 334 334 334 335 336 337
346 346 346 343 344 346 347 348 348 348 348 348 348 346 345 344 343 343 344 345 345 343 342 342 342 342 341 340 340 341 340 340 340 340 340 339 339 338 337 336 335 335 336 335 335 337 337 337 337 337 336 335 336 338 338 339 342 344 345 346 345 343 343 345 345 346 346 347 348 346 343 344 347 345 339 336 338 338 335 333 334 335 337 340 340
346 346 344 341 343 347 347 348 348 348 348 348 348 347 346 344 343 343 344 343 343 342 341 342 343 342 342 341 340 341 340 340 341 341 340 339 339 339 338 336 336 337 338 337 336 337 338 338 338 337 337 337 337 338 339 338 340 343 345 345 344 343 343 344 345 345 345 346 349 348 345 346 347 343 337 338 340 337 333 332 335 337 339 341 342
346 346 343 340 343 345 347 347 347 347 346 346 347 346 346 344 342 343 344 343 343 342 342 343 344 343 342 341 340 340 339 340 341 341 340 339 338 339 339 338 336 337 338 338 338 338 338 338 339 338 337 339 339 339 340 339 340 342 343 344 344 344 343 343 344 344 344 346 349 349 347 347 347 343 338 339 341 336 331 333 337 339 340 341 342
347 346 343 341 341 344 347 348 347 347 345 345 346 346 345 344 343 344 344 343 343 342 342 343 343 342 341 341 341 341 340 339 341 341 340 339 338 339 340 339 338 337 337 338 337 338 338 338 338 338 339 340 341 341 341 340 341 342 343 344 344 345 344 343 343 343 344 346 349 349 348 348 347 344 341 341 341 335 332 336 339 340 340 343 343
346 346 344 342 340 341 346 348 347 346 345 346 347 346 345 343 343 343 343 343 342 342 342 342 342 342 341 341 341 343 341 340 341 341 341 340 339 339 339 339 339 337 336 337 338 338 338 338 338 338 339 341 342 342 341 342 342 343 344 345 345 345 344 342 342 343 344 346 347 347 347 347 346 344 342 342 340 335 335 338 340 339 340 344 342
346 345 345 343 340 340 345 347 347 346 345 346 348 347 345 344 344 344 343 343 343 343 344 343 343 342 341 341 341 342 342 341 342 341 341 341 340 339 338 338 339 337 336 337 339 339 338 338 338 338 340 341 342 341 342 342 343 344 345 345 346 345 343 342 343 344 344 345 345 345 346 346 344 343 342 342 339 335 336 339 339 339 340 344 343
344 345 344 341 339 340 342 345 346 346 344 345 347 347 346 345 344 344 344 344 344 344 343 343 343 343 342 341 342 343 343 342 341 341 341 340 340 339 339 339 338 337 337 338 339 339 338 338 338 339 340 341 342 341 342 343 345 346 346 346 346 344 342 343 344 345 344 344 344 344 345 344 343 343 342 341 338 335 338 339 340 339 340 344 344
340 342 341 337 337 338 339 343 346 345 344 345 347 347 346 345 344 344 344 344 344 344 342 343 343 344 343 342 343 343 343 343 342 341 341 340 340 340 340 340 339 339 339 339 339 339 339 339 339 339 340 341 341 341 343 345 347 347 346 348 348 345 343 343 344 345 344 342 344 344 343 343 342 342 341 339 337 337 339 340 340 340 339 342 345
338 339 339 336 334 335 337 342 344 342 343 346 347 347 346 346 345 345 345 346 345 344 343 343 343 343 344 344 344 343 343 342 342 342 341 340 340 339 340 340 340 340 340 340 339 339 340 339 339 340 340 340 340 341 342 344 346 345 344 347 348 344 342 343 344 344 342 342 343 342 342 342 341 340 339 338 337 339 340 340 340 340 340 340 343
338 339 339 336 333 333 336 340 342 341 342 346 347 346 347 346 346 346 346 347 347 344 344 345 343 344 345 345 344 343 343 342 341 341 342 342 341 340 340 340 340 341 342 342 340 340 340 338 339 339 340 340 340 341 342 344 344 342 343 346 345 340 338 341 343 342 341 341 341 341 341 341 339 339 338 338 339 340 340 340 340 340 340 340 341
337 340 340 337 336 335 336 339 342 340 343 346 347 346 346 346 347 348 346 346 347 346 345 345 344 344 345 345 345 343 343 343 342 342 342 343 343 342 342 342 342 342 343 343 342 341 340 339 339 340 340 340 341 342 342 344 344 342 343 344 343 339 334 337 340 340 340 340 340 341 340 339 339 340 340 340 339 339 339 340 340 340 340 340 340
337 341 340 339 341 341 339 340 341 341 344 347 347 347 347 346 347 348 347 346 346 346 346 345 344 344 344 345 345 344 343 343 343 343 343 343 342 343 344 343 343 343 343 343 342 342 342 341 342 341 341 340 341 342 342 344 345 343 343 343 342 338 331 332 336 337 337 339 339 339 338 339 340 340 340 339 338 337 338 339 339 340 339 339 340
338 341 340 339 341 342 342 341 340 341 344 346 347 347 346 345 346 346 345 344 344 346 346 345 344 345 346 345 345 345 344 343 344 343 343 343 343 343 344 344 344 345 344 344 343 343 343 343 343 343 343 341 340 340 341 345 347 344 344 344 342 337 332 336 340 339 338 339 340 340 339 340 340 340 340 338 336 336 337 337 338 338 338 339 340
340 341 340 339 340 341 342 343 341 341 343 345 346 346 344 343 344 343 343 342 343 345 346 346 346 346 347 347 346 345 344 344 344 344 343 343 343 343 343 344 344 345 345 345 345 345 344 345 344 344 344 343 342 342 343 346 346 344 343 345 345 341 339 343 344 342 340 341 343 344 342 340 340 342 343 340 338 338 337 337 337 336 337 339 341
341 341 340 339 340 341 342 342 342 342 343 343 344 345 344 344 344 342 342 343 344 345 346 346 346 347 347 348 348 347 345 346 346 346 344 343 343 343 343 344 345 345 346 346 347 347 347 346 344 344 345 343 342 342 342 343 341 341 343 345 345 344 344 346 345 343 342 342 344 346 346 345 345 346 346 342 341 341 340 339 337 336 337 340 342
341 341 341 341 340 342 343 342 343 344 344 343 344 347 347 346 346 344 343 343 343 343 345 347 347 347 348 348 348 348 347 348 349 349 347 345 345 343 343 344 344 345 346 347 348 348 348 346 344 345 345 343 341 340 340 342 340 338 341 343 342 342 344 346 346 344 344 344 345 347 348 348 348 348 347 344 342 343 342 341 340 339 340 341 341
342 342 342 342 341 343 344 342 344 345 345 345 346 348 347 347 348 347 345 344 344 343 343 345 346 347 349 350 350 350 349 349 349 349 348 346 346 345 344 344 344 345 346 347 347 348 347 346 345 346 346 345 344 343 344 347 344 340 340 341 340 341 342 343 345 345 344 345 346 346 348 348 348 348 347 345 344 344 343 342 342 342 342 341 339
344 344 344 343 343 346 345 344 346 346 346 347 347 346 346 346 348 348 345 343 344 344 343 343 345 347 350 351 351 350 350 350 349 349 347 346 346 346 345 345 346 346 347 347 346 346 346 346 346 346 347 347 347 346 347 348 347 344 343 342 339 340 339 340 345 347 345 345 346 346 348 348 347 348 347 345 344 344 343 343 343 343 343 341 338
344 347 346 344 345 347 345 344 346 347 347 348 347 345 344 344 344 345 343 342 342 343 343 344 345 347 349 351 351 351 351 350 350 350 348 348 347 347 346 346 347 348 348 348 346 345 345 346 346 346 346 346 347 348 348 347 347 347 346 343 341 340 339 340 346 347 346 346 346 347 348 348 348 349 347 346 345 345 344 344 344 344 343 341 338
344 346 347 345 344 346 345 344 345 345 345 346 345 343 342 342 342 342 342 342 342 341 343 345 346 347 349 352 352 352 352 351 351 351 350 349 349 349 348 346 346 347 348 347 343 343 346 346 346 346 345 343 343 346 348 347 347 346 346 345 344 343 341 342 345 347 347 347 346 346 348 349 349 349 347 346 345 345 344 344 344 343 342 340 337
345 346 346 346 344 346 348 347 345 345 344 343 343 342 342 342 343 342 342 344 343 342 344 346 346 346 348 351 352 352 352 351 351 351 350 350 349 349 348 346 345 346 347 346 342 344 348 348 346 346 345 342 340 344 348 348 348 347 348 348 347 345 343 343 345 347 347 347 347 347 349 350 350 349 347 346 345 344 344 344 344 343 339 334 330
347 347 347 347 347 348 349 348 348 347 346 343 342 343 343 342 342 341 342 345 346 345 346 347 346 347 347 349 352 353 353 353 352 351 351 351 350 350 349 347 347 347 347 347 346 346 349 349 348 347 347 344 342 342 345 347 349 349 349 348 347 345 344 345 347 348 348 347 347 349 350 350 350 348 347 346 346 344 345 344 342 338 332 325 320
349 349 348 348 348 349 349 348 347 347 345 344 343 344 344 343 344 343 343 346 347 346 349 349 350 351 349 348 350 351 352 352 352 352 351 349 349 350 350 350 349 348 347 348 348 348 349 349 349 349 349 347 345 343 344 345 348 349 349 348 347 346 346 347 348 348 346 347 349 350 351 350 350 349 347 347 346 344 345 344 341 334 326 318 313
350 350 349 348 347 347 348 347 346 344 342 343 346 347 346 346 346 346 347 348 348 348 352 353 352 352 350 348 348 347 347 349 350 349 348 347 345 344 347 350 350 349 348 348 349 350 350 350 349 350 350 348 346 345 344 345 347 348 349 349 348 348 348 348 348 347 346 348 351 351 350 350 350 349 348 347 346 345 345 344 341 334 323 314 311
349 349 348 347 346 345 345 346 347 345 342 344 347 348 348 349 348 348 349 350 351 352 353 352 350 350 349 349 349 348 347 347 347 347 346 346 345 342 344 349 350 350 350 350 350 351 351 351 349 349 348 346 346 345 344 345 346 347 348 348 348 348 349 348 348 347 347 348 350 351 350 349 350 349 348 348 347 345 345 344 340 332 320 312 311
347 347 346 346 346 345 344 345 347 348 347 346 348 348 348 349 350 350 350 351 352 353 351 349 348 347 346 347 349 349 349 348 347 347 347 347 345 343 344 347 349 351 351 350 350 350 351 351 350 348 345 345 346 345 344 345 346 346 347 348 348 348 348 349 349 349 349 349 350 350 350 350 350 349 349 348 347 346 345 343 339 332 319 310 309
347 347 346 345 345 346 345 345 345 347 349 348 348 348 348 349 350 351 350 350 352 352 350 349 349 348 346 346 348 348 348 348 348 348 349 348 347 346 346 346 348 350 350 349 349 349 350 350 350 348 346 345 346 345 344 345 345 346 348 348 348 349 349 350 350 350 350 350 350 350 350 350 350 349 349 348 347 346 345 342 339 334 320 309 307
345 346 346 345 345 345 345 345 345 347 349 349 349 349 349 350 351 350 350 351 353 352 350 351 350 349 349 349 349 349 348 347 348 349 350 349 348 347 346 347 349 349 349 349 349 349 348 347 347 348 346 345 345 345 345 345 345 346 347 348 348 349 348 349 349 349 349 348 348 349 349 350 349 349 348 348 347 346 345 342 339 335 324 310 307
344 344 345 345 345 345 345 346 345 346 347 347 347 348 350 351 350 349 349 350 352 352 351 350 350 349 349 349 349 349 349 349 350 351 351 349 348 347 347 348 350 350 350 350 349 348 347 346 346 348 348 347 345 345 345 344 344 345 346 346 347 346 347 347 347 347 347 346 347 348 348 349 349 349 348 346 345 345 344 342 339 335 327 315 307
345 344 344 344 346 345 345 346 346 346 346 346 346 346 347 348 348 349 349 349 351 351 349 349 348 349 349 349 349 349 349 349 349 350 351 350 348 348 348 349 351 352 351 350 348 347 346 346 346 347 347 347 346 346 345 344 343 344 345 346 346 346 346 346 346 346 346 346 347 347 348 349 348 348 347 344 344 344 342 342 340 335 329 320 312
346 346 344 344 346 346 345 346 346 346 346 345 344 342 342 344 348 350 350 350 350 350 349 349 349 349 350 349 348 349 349 349 349 349 350 350 349 348 349 350 352 352 351 350 348 347 347 347 347 347 347 346 346 345 344 344 344 345 346 347 347 347 346 345 346 346 346 347 347 347 347 347 347 347 346 343 343 343 342 342 340 335 328 322 318
345 346 345 344 345 345 345 346 346 345 346 346 345 343 342 346 350 352 352 351 351 351 351 351 350 351 350 347 345 346 347 349 350 349 348 348 349 349 348 348 348 348 349 350 349 347 347 347 348 348 347 347 346 345 344 344 345 345 347 348 347 346 345 346 346 346 346 346 346 346 347 347 346 346 345 343 342 342 341 341 340 335 327 322 321
345 345 345 345 344 345 345 346 346 346 347 348 349 348 348 349 351 351 351 351 352 351 351 350 350 350 348 346 344 345 347 350 350 350 349 348 348 348 348 347 347 346 346 348 348 347 346 347 348 348 347 347 346 346 345 346 346 347 347 347 347 346 346 346 346 345 346 345 345 346 345 342 341 341 341 340 340 338 338 340 340 335 326 321 323
345 345 346 345 345 346 346 347 347 347 348 348 349 349 350 351 351 351 352 352 352 351 350 349 349 349 348 346 345 345 348 350 350 350 349 348 347 348 349 349 348 347 347 346 347 346 346 347 348 348 348 347 347 346 347 347 347 347 348 347 347 346 346 346 346 345 345 345 344 346 343 335 331 332 335 337 337 335 337 340 339 334 326 323 325
346 346 346 346 346 347 347 347 347 347 348 349 348 348 350 351 351 351 351 351 352 351 349 348 348 348 347 346 346 346 348 350 351 350 349 348 348 349 349 348 348 348 347 347 347 347 347 348 348 348 348 347 347 348 348 348 348 348 348 347 347 347 346 345 345 344 344 344 344 345 343 335 328 328 331 333 333 332 334 335 334 330 325 324 327
346 346 346 346 347 347 347 347 347 347 348 349 348 348 349 349 350 351 352 351 351 350 349 348 347 346 345 346 347 347 348 349 350 350 349 348 349 349 348 347 347 347 348 348 349 349 348 348 348 348 348 348 348 348 348 348 348 347 346 346 346 345 344 344 344 343 343 343 343 343 343 338 332 329 329 329 329 329 329 328 326 324 323 325 327
349 348 347 347 348 348 349 348 348 348 348 348 348 349 349 350 351 352 352 351 351 351 351 349 347 345 344 345 346 348 348 349 350 350 349 349 349 350 349 348 347 347 349 350 350 350 349 348 348 347 347 347 347 347 347 346 345 344 344 344 344 343 343 342 340 339 340 342 342 342 340 335 330 330 329 329 329 328 327 324 322 321 323 326 328
351 351 350 349 349 349 349 349 348 348 348 348 349 350 350 351 352 352 352 351 351 351 350 348 345 344 344 345 347 348 348 348 349 349 349 349 348 348 348 348 348 348 349 350 350 349 348 347 347 347 347 347 346 345 344 342 341 340 341 342 342 342 342 340 337 337 338 339 338 339 337 332 329 329 329 327 327 326 323 322 322 323 324 327 328
352 352 351 350 349 348 348 349 348 349 349 350 351 351 351 352 351 351 351 351 351 349 347 346 345 344 344 345 346 347 348 348 349 350 350 349 347 346 346 347 348 348 349 349 348 348 348 347 347 347 346 345 344 342 341 339 338 339 340 340 339 338 336 333 332 334 336 336 335 335 334 332 331 330 328 325 323 321 320 322 324 326 326 327 327
351 351 349 348 346 345 345 346 347 347 349 350 352 352 352 351 350 350 350 350 350 348 347 346 345 344 344 344 344 345 347 347 348 350 351 349 348 347 347 347 347 348 348 348 347 347 347 347 346 345 345 344 343 341 338 337 336 336 335 332 331 329 325 321 323 329 332 333 332 331 329 327 325 323 322 320 318 317 319 321 321 321 320 318 317
Wind_Speed
19 19 20 20 19 18 18 17 15 13 11 9 8 8 9 10 11 11 11 10 10 10 10 8 7 6 4 3 3 4 5 5 6 7 8 9 10 11 11 11 11 10 9 9 9 9 10 10 10 10 11 11 11 12 14 14 15 15 15 16 16 16 16 16 16 15 15 14 14 14 13 13 12 11 11 11 11 11 11 10 10 9 9 8 8
18 19 18 17 17 18 17 15 13 11 9 8 8 8 9 9 9 9 9 9 8 9 11 10 9 8 7 4 5 7 9 8 7 7 7 8 10 10 10 11 10 10 9 9 9 9 9 9 9 10 10 11 11 12 13 14 14 14 15 15 15 15 15 15 15 15 14 14 14 13 13 12 12 12 12 12 12 12 12 12 12 11 11 9 8
18 18 17 16 17 18 16 15 12 10 8 7 7 7 7 6 5 6 6 5 5 7 10 11 9 8 8 8 10 11 11 10 8 7 7 8 9 9 9 10 10 9 8 8 8 8 8 8 9 9 9 10 11 11 12 12 13 13 13 13 13 14 14 14 14 14 13 13 13 12 12 12 12 12 12 13 13 13 12 12 12 12 12 11 10
18 17 16 16 17 17 15 13 11 8 6 4 4 4 4 4 5 6 5 5 7 8 9 11 10 7 7 8 10 10 11 10 8 7 7 7 9 9 9 9 9 8 8 7 7 7 7 8 8 8 8 9 9 10 10 11 11 11 11 11 12 12 12 13 12 12 12 12 12 11 11 11 12 12 13 13 13 13 12 12 11 11 11 11 11
17 16 14 15 18 16 13 11 8 5 3 2 2 4 6 8 9 8 7 8 9 9 9 12 11 8 6 6 7 9 10 9 8 8 7 7 9 9 9 9 8 7 7 7 7 7 7 7 7 8 7 8 8 8 8 8 9 9 10 10 11 11 12 12 12 11 11 11 12 11 10 10 11 12 12 12 13 13 12 11 11 10 10 10 11
15 14 13 16 18 14 10 8 7 4 3 4 5 7 10 10 9 8 8 9 9 9 10 11 10 8 5 5 6 8 9 8 7 8 8 8 9 9 9 8 7 7 7 6 6 6 7 7 7 7 7 7 7 7 7 7 7 8 9 10 11 11 11 11 11 11 10 11 13 11 9 8 9 10 11 11 12 12 11 11 9 9 9 9 10
15 13 13 15 15 12 10 9 8 5 5 6 7 10 12 11 9 10 10 10 11 12 11 10 9 7 6 5 6 7 9 8 8 8 8 8 9 9 9 8 7 6 6 6 6 6 6 6 6 7 7 7 7 7 7 7 7 8 9 9 10 11 11 12 11 10 9 11 14 12 9 7 7 9 10 10 10 11 11 10 9 8 7 7 8
15 14 13 15 14 12 11 10 9 7 7 8 9 12 12 11 11 12 11 11 12 13 11 10 9 8 7 5 5 7 7 7 8 8 7 7 8 9 8 8 7 7 7 6 6 5 5 5 4 5 5 6 6 7 7 7 7 8 8 9 9 10 11 12 12 10 9 11 13 11 8 7 7 7 9 10 11 12 12 10 9 8 7 6 6
15 15 14 15 14 12 11 10 9 8 9 10 11 12 12 13 13 13 12 11 12 12 11 11 9 7 8 7 6 5 5 5 7 7 7 7 7 7 6 6 6 6 7 7 6 5 5 4 4 4 5 5 6 7 7 7 7 7 8 8 9 9 10 11 11 10 10 12 13 10 8 7 7 8 9 11 12 13 12 11 10 9 8 7 6
15 15 15 15 14 13 12 11 10 10 10 10 11 12 12 13 13 13 13 12 12 13 12 11 8 7 9 7 5 4 2 2 4 5 6 8 8 7 7 5 4 4 5 5 6 5 4 5 6 5 6 6 6 8 8 7 6 6 7 7 8 10 10 10 11 11 10 12 11 8 7 7 7 9 10 11 12 13 12 12 11 10 10 9 8
17 16 15 15 15 14 12 11 10 10 10 10 11 12 11 11 12 13 13 13 13 13 13 12 9 8 8 7 6 4 2 1 2 3 4 6 6 6 7 6 4 4 4 4 4 4 4 5 6 7 6 6 7 8 7 7 7 6 7 7 9 10 11 11 11 10 10 11 10 6 6 7 7 9 11 11 12 13 13 12 12 12 12 11 9
17 15 14 15 16 15 13 11 10 9 9 10 10 11 11 10 11 12 13 13 13 12 12 11 9 8 6 7 7 6 4 3 1 0 1 3 3 4 6 6 6 6 5 5 4 3 4 5 6 7 8 7 7 8 8 8 7 7 7 7 9 11 11 11 11 10 9 10 8 5 6 6 7 9 10 10 12 13 13 13 13 13 13 12 10
16 14 14 15 17 15 14 12 11 10 10 9 10 11 11 10 11 11 12 12 12 12 11 10 9 8 6 8 8 8 8 6 5 5 3 2 1 2 4 5 5 6 6 6 4 3 4 5 5 6 8 7 7 7 8 8 8 7 7 7 9 11 12 11 11 10 8 9 8 5 5 6 7 9 10 10 12 14 14 13 13 14 14 12 11
15 13 14 15 16 16 15 13 12 11 10 9 10 12 12 12 12 11 12 11 10 11 11 10 10 9 7 8 9 10 11 10 8 7 6 5 4 3 0 2 2 2 3 3 3 4 6 6 5 5 7 8 7 8 8 8 8 8 8 8 9 12 13 12 11 10 9 8 8 6 5 6 7 8 10 11 13 15 14 13 14 14 14 12 12
15 13 14 15 15 15 15 13 12 11 8 8 10 12 13 13 12 11 11 10 10 10 10 11 10 8 7 9 9 9 11 10 8 6 5 6 7 7 5 3 2 2 3 3 3 5 7 6 4 4 6 8 8 8 8 8 9 9 10 10 10 12 12 12 11 9 9 8 8 7 6 6 7 8 10 12 14 16 14 13 14 14 13 12 12
16 15 15 15 14 15 16 13 12 11 8 8 10 12 13 13 11 11 10 9 9 9 9 10 9 8 8 8 8 9 8 8 8 5 3 4 7 8 7 8 8 7 7 6 6 6 7 5 3 3 5 5 6 7 7 8 10 11 12 11 10 10 10 10 10 9 8 7 7 7 6 6 7 8 10 12 15 16 14 13 14 14 13 12 12
17 17 17 16 15 16 17 14 12 12 10 9 11 12 13 13 11 11 10 8 8 8 8 8 8 7 8 7 6 6 5 6 6 5 4 3 3 4 4 5 7 8 8 8 7 7 8 7 6 6 6 5 6 7 7 8 10 11 12 10 8 8 9 9 9 8 6 5 6 7 6 7 8 9 11 13 15 15 13 12 13 14 13 12 11
18 18 18 17 16 18 18 13 12 12 11 11 12 12 12 13 12 11 9 7 8 8 7 7 7 8 8 5 3 3 3 4 5 4 5 4 3 2 2 2 3 5 7 6 7 8 10 10 9 8 7 7 7 7 6 6 8 10 10 8 7 8 8 8 9 7 5 4 5 6 7 8 9 11 12 14 16 14 12 12 13 13 13 12 11
17 17 16 16 17 19 17 12 11 12 12 12 13 12 12 12 12 10 8 7 8 8 6 5 7 9 9 6 2 2 3 3 4 3 3 3 3 3 3 3 2 4 5 7 9 11 12 11 11 11 10 10 9 9 6 4 6 7 6 5 6 8 7 8 8 6 4 4 6 7 8 10 11 12 13 15 15 13 12 12 12 13 13 12 11
15 15 14 15 17 17 15 12 12 13 13 14 13 12 12 11 11 10 8 7 7 7 7 4 6 9 8 6 4 3 4 3 3 4 4 4 4 4 4 5 5 6 8 11 12 13 13 12 12 13 13 14 13 12 10 8 6 5 3 3 3 4 5 7 7 5 4 5 6 8 9 11 12 13 15 15 14 13 12 12 12 13 13 12 11
15 14 14 15 16 16 15 14 13 14 14 14 14 13 12 10 10 9 8 7 5 7 7 5 5 7 7 6 4 3 4 4 4 5 5 6 6 6 7 7 8 9 10 11 11 11 12 12 12 13 14 15 15 14 13 11 9 6 4 4 3 1 2 5 6 5 5 6 7 8 10 11 12 13 13 13 13 13 13 13 13 13 13 13 12
16 14 14 15 15 15 15 15 14 15 15 15 14 12 12 11 8 9 9 8 6 7 8 8 7 7 6 6 5 4 4 4 5 6 7 8 8 8 9 9 10 11 11 11 9 9 10 11 12 14 15 15 15 14 13 11 10 7 5 5 3 1 2 4 5 6 6 7 8 9 10 11 11 12 12 12 13 13 14 14 14 14 14 14 13
16 15 15 15 13 13 14 15 16 16 15 15 15 12 12 11 9 10 11 10 8 8 10 10 9 7 6 6 7 8 7 6 6 7 9 10 11 10 10 10 11 11 11 10 10 10 11 11 12 14 14 15 14 14 13 10 9 7 4 5 3 0 3 6 7 7 8 8 9 9 9 10 10 11 12 13 13 14 14 14 14 14 14 14 14
16 15 16 16 14 14 14 15 17 16 15 15 14 13 11 10 9 10 12 12 11 10 11 11 10 8 6 5 6 7 8 7 7 8 10 11 12 12 12 12 12 12 11 11 11 11 12 12 13 13 14 14 14 15 13 10 7 5 4 5 4 1 3 6 7 8 8 9 10 9 9 9 11 12 14 14 14 14 15 14 14 14 14 15 14
16 16 17 17 15 15 15 16 16 16 15 16 15 13 10 9 10 11 12 13 12 12 12 10 10 8 6 5 5 6 6 6 7 9 10 11 12 13 13 13 13 13 13 13 14 14 14 13 14 13 12 12 13 14 12 9 8 6 4 4 3 2 2 5 7 7 9 9 9 9 9 10 11 13 15 15 14 14 14 14 15 15 15 15 14
17 16 17 17 16 15 16 16 16 15 16 16 15 14 11 10 11 11 12 12 13 13 12 11 11 9 9 8 6 6 6 6 7 9 10 11 12 13 13 12 12 13 13 13 14 15 14 13 13 12 10 10 10 9 9 9 9 8 5 3 3 3 2 4 6 6 8 9 9 9 10 11 12 14 15 15 14 14 14 14 15 15 14 13 13
17 16 16 17 16 16 16 16 16 16 16 16 15 13 12 12 11 10 11 11 11 12 12 12 12 11 11 10 8 8 7 7 9 10 10 12 13 13 13 13 13 13 12 12 12 13 12 11 10 10 8 8 7 6 8 7 6 6 5 4 3 2 1 2 4 5 7 9 10 11 11 12 13 13 14 14 13 13 14 14 14 13 12 12 11
17 17 17 17 17 17 17 17 16 16 15 15 14 13 13 12 11 10 10 9 10 11 11 12 12 13 12 11 9 9 9 10 10 11 12 13 13 12 13 14 14 14 14 14 13 11 9 9 8 7 6 6 7 6 7 6 4 6 5 4 3 2 2 1 3 6 8 9 11 12 12 12 13 14 14 13 13 14 15 14 13 12 11 11 11
16 17 17 17 17 16 16 16 16 15 14 13 13 13 13 11 11 11 9 9 9 10 11 11 12 13 13 11 11 9 9 11 12 13 13 14 13 12 13 13 14 15 15 15 15 12 9 8 8 7 6 7 7 6 6 6 6 7 6 4 4 3 3 3 4 8 10 10 12 12 12 12 13 13 13 13 14 14 14 14 13 12 11 11 11
16 16 18 18 17 16 15 16 16 15 13 13 13 13 13 12 12 12 11 10 10 10 11 11 11 13 13 12 11 10 10 12 13 14 14 13 12 11 13 14 15 16 15 14 14 13 10 8 8 9 8 7 7 6 5 6 7 7 7 6 5 4 5 5 6 9 11 11 13 13 12 13 13 13 13 13 13 13 13 13 12 12 12 12 12
17 16 18 19 18 16 16 16 16 15 14 14 14 14 13 13 12 12 11 11 11 11 10 9 8 10 11 11 11 11 11 12 13 14 14 13 12 12 14 15 15 15 14 14 14 11 9 9 8 9 8 7 7 5 5 7 7 8 9 8 7 6 7 7 7 9 11 12 13 12 12 13 13 12 12 12 13 13 12 11 11 11 12 12 12
17 17 17 17 17 17 16 17 17 16 15 15 15 14 14 13 12 12 11 11 12 11 10 10 9 9 11 12 13 12 12 13 13 13 13 12 13 14 14 13 13 13 13 13 13 10 8 9 10 9 8 8 7 6 6 8 8 10 10 11 11 10 10 9 8 9 11 12 12 11 11 12 12 12 11 12 13 13 11 10 10 12 12 12 12
17 16 16 16 16 16 16 16 16 15 16 16 15 15 15 13 13 12 12 12 12 11 10 10 9 8 9 12 13 14 14 14 15 15 13 12 12 12 11 11 11 12 13 13 13 11 10 10 11 10 10 10 9 7 8 9 10 11 12 13 14 14 13 12 10 10 11 11 11 10 11 12 12 11 11 12 13 13 10 10 11 12 13 13 12
16 16 15 14 14 14 14 14 14 14 15 15 14 13 13 13 13 12 12 12 12 10 8 7 7 8 9 11 13 15 15 15 16 16 15 13 11 11 10 10 11 12 13 13 13 13 12 10 11 11 11 12 11 9 9 10 11 13 14 15 16 16 15 14 13 11 11 10 10 10 11 12 11 11 11 12 13 12 10 10 12 14 15 14 12
16 16 16 14 13 13 13 12 11 12 14 13 12 11 10 11 12 11 11 11 10 9 9 10 10 11 12 12 13 15 15 15 16 17 16 14 13 12 12 11 10 11 12 12 12 13 13 12 11 12 14 15 13 10 10 11 12 13 14 15 16 16 16 15 13 12 11 10 10 11 11 12 11 11 11 11 12 11 10 10 12 15 16 14 11
17 17 16 14 13 13 14 13 11 10 12 13 12 10 10 11 12 11 10 10 10 11 13 14 14 13 12 12 14 16 16 15 15 16 15 14 14 14 14 12 11 10 11 13 14 14 14 13 12 12 14 15 13 11 11 11 11 12 13 15 16 16 15 14 13 13 12 11 11 11 11 11 11 12 11 11 11 11 10 10 12 15 16 12 10
17 17 16 15 14 14 14 14 14 13 12 13 13 12 12 14 14 12 12 11 12 13 15 14 14 13 13 12 13 15 16 16 16 17 16 16 16 15 15 14 12 10 10 13 15 15 15 15 14 14 14 14 13 12 11 12 12 11 12 14 15 16 15 14 14 14 13 12 12 12 12 11 12 12 11 11 10 10 9 9 11 15 15 11 9
19 19 18 16 16 15 14 14 15 16 14 14 14 14 14 15 16 15 14 13 14 15 15 14 14 14 13 12 12 13 15 16 18 18 17 17 17 16 16 15 13 10 10 12 15 15 16 15 15 14 13 13 13 12 12 12 11 10 11 12 13 15 15 15 15 14 14 12 12 12 12 11 11 11 11 11 10 9 8 8 11 15 14 11 9
20 21 21 20 19 18 16 15 15 17 16 16 16 15 14 15 17 17 16 15 16 17 16 16 16 16 15 15 14 14 15 16 17 17 17 16 16 15 15 14 12 10 10 12 13 13 14 15 14 12 11 11 12 12 12 12 11 10 10 10 11 13 13 14 13 13 12 12 12 12 11 10 11 11 11 11 10 8 7 7 9 13 13 11 9
19 20 21 21 20 20 19 17 16 18 19 20 19 17 15 16 18 18 18 19 20 19 18 18 18 18 17 17 16 16 16 16 16 16 15 15 15 15 14 14 13 11 11 12 13 14 14 14 12 11 11 12 12 11 11 11 10 9 9 9 9 9 10 11 11 11 12 12 13 12 10 10 10 11 11 11 9 7 6 6 8 11 12 11 9
21 20 20 20 20 22 22 20 18 19 20 22 23 22 22 22 20 19 18 19 21 22 21 21 20 18 17 16 16 16 16 16 16 16 15 15 15 13 12 12 13 13 12 13 14 14 14 14 13 13 13 13 12 12 11 10 10 9 9 9 8 8 8 9 10 11 12 13 13 12 11 10 11 11 11 10 8 6 5 6 7 9 11 11 9
23 23 22 21 21 21 22 21 20 20 20 22 24 24 25 23 19 17 17 17 18 20 21 21 19 17 17 17 17 17 16 15 15 15 15 15 14 12 11 12 13 13 13 14 15 14 14 14 14 14 14 14 13 12 11 11 10 9 9 9 9 8 8 9 11 12 13 13 13 13 12 11 11 12 11 9 7 5 5 5 6 8 10 11 10
24 25 25 24 23 21 21 21 21 21 20 19 20 20 21 21 18 17 18 19 17 17 18 18 18 17 17 18 17 17 16 15 15 14 13 13 13 14 14 14 15 15 13 13 14 14 14 14 14 13 13 13 13 12 12 12 11 9 9 9 9 9 10 12 12 13 14 15 14 14 13 12 12 12 12 10 7 5 6 6 6 7 9 11 10
23 24 25 26 24 23 22 20 20 21 21 20 19 18 20 20 19 19 20 20 19 18 18 17 17 17 16 16 16 16 15 15 15 15 14 14 14 15 15 16 16 15 14 13 14 14 13 13 13 13 13 13 13 13 13 12 11 9 9 10 11 12 13 14 14 15 15 15 15 16 14 11 11 12 11 10 8 5 5 6 6 7 8 9 9
20 21 24 25 24 24 22 20 19 20 22 22 21 21 22 22 21 20 21 21 21 20 19 18 17 16 16 16 16 15 14 14 14 14 14 14 15 14 14 15 16 16 15 14 14 14 14 14 14 14 14 14 14 14 13 12 11 10 11 12 14 14 15 15 16 16 16 16 15 15 11 8 8 9 9 8 7 6 5 5 6 7 8 9 9
19 19 21 23 24 24 23 21 21 22 24 24 24 23 24 24 24 23 22 22 21 20 18 17 16 16 16 16 16 15 14 14 14 14 14 14 15 14 15 17 18 18 17 16 14 14 14 13 14 15 14 14 14 14 13 13 13 14 14 15 15 15 15 16 16 16 16 16 15 15 13 10 9 8 7 7 6 5 5 5 5 7 9 9 8
23 22 22 22 23 23 23 23 23 24 25 25 25 24 24 25 26 24 23 23 21 20 18 17 16 16 16 16 16 16 15 14 14 15 15 16 17 16 17 18 19 18 18 17 15 15 14 14 14 14 14 14 14 14 14 15 15 16 16 17 17 17 17 17 16 16 16 15 15 15 13 10 9 9 7 6 5 6 5 5 7 8 8 8 7
26 26 26 26 25 24 24 24 25 25 25 24 23 22 23 24 25 24 24 23 22 21 20 18 17 17 16 17 17 16 15 15 15 16 16 16 18 19 18 18 18 18 18 17 15 15 14 14 14 14 14 15 15 15 16 16 16 16 15 16 17 17 17 16 14 13 13 13 13 13 10 8 8 9 8 6 7 8 7 8 10 10 8 7 7
25 26 26 27 26 25 25 25 25 24 23 22 21 21 22 23 24 24 22 21 21 20 20 18 17 17 16 16 16 16 15 15 15 16 16 16 18 20 19 17 18 19 19 16 15 14 14 14 14 14 14 14 14 15 15 16 16 14 13 14 15 14 14 14 13 12 13 13 12 11 10 9 9 8 8 9 9 9 9 9 10 11 11 11 11
23 24 24 24 23 23 23 24 24 22 21 21 21 21 22 22 23 22 20 19 19 18 17 17 16 16 16 16 16 16 15 14 13 15 16 16 17 18 17 16 16 17 17 15 14 14 14 14 14 14 13 12 12 12 14 15 14 12 11 11 12 12 12 12 11 11 11 11 10 10 10 11 11 10 10 11 10 8 7 8 8 9 11 12 13
22 22 22 22 22 23 23 24 24 23 21 21 21 21 21 21 21 20 19 19 18 17 17 17 17 17 17 17 17 16 16 14 13 14 16 17 17 17 16 15 14 15 15 15 14 14 15 15 14 13 12 11 10 9 11 12 12 12 11 11 11 12 11 10 9 9 10 10 10 10 9 10 11 10 10 11 9 7 7 8 9 9 10 12 13
Wind_Direction
134 132 131 132 131 128 124 120 114 109 103 98 97 96 97 106 116 117 115 118 124 134 131 119 122 126 118 103 75 54 57 72 90 111 122 129 133 135 136 130 126 121 114 112 107 103 99 95 91 86 82 81 80 76 75 74 70 66 62 60 56 52 49 45 42 40 37 35 33 30 25 20 16 14 13 11 11 6 2 1 357 351 339 328 320
135 133 133 133 134 132 127 121 114 107 104 102 102 101 101 107 115 117 114 113 117 126 120 108 102 96 88 94 104 92 78 77 93 110 120 130 134 137 136 129 122 115 111 109 105 103 100 97 91 85 81 78 78 76 74 73 71 68 63 59 55 51 48 44 41 37 33 31 28 25 19 14 11 8 8 8 7 6 6 6 5 4 357 347 336
139 138 135 136 138 136 129 121 116 109 103 102 104 103 104 106 114 131 128 114 125 137 121 113 109 99 96 102 103 90 75 77 91 103 117 128 132 134 131 125 119 114 112 109 107 106 101 98 90 82 79 76 75 74 73 72 70 67 62 57 52 48 44 41 39 35 30 26 23 19 13 7 3 1 0 0 360 359 0 3 5 7 7 4 1
143 140 136 139 144 139 129 123 115 105 97 94 108 114 130 160 171 172 174 156 164 170 138 123 122 119 114 105 95 81 72 77 83 92 108 124 130 131 128 122 118 115 115 113 111 111 107 102 92 83 79 75 73 73 72 70 66 62 57 50 45 40 36 33 31 30 26 22 17 12 7 1 357 355 356 357 355 354 353 353 356 0 6 9 12
146 141 137 138 144 141 131 124 113 100 99 117 154 161 168 175 174 169 163 157 170 177 145 129 126 123 122 111 97 81 76 78 80 87 100 121 130 129 127 122 119 118 114 116 117 116 113 107 98 88 80 75 71 70 69 66 62 56 48 40 33 28 26 25 24 24 25 22 15 8 4 358 354 354 357 357 355 353 350 347 345 346 352 0 8
148 144 143 142 145 143 135 131 123 117 129 128 143 162 164 166 165 152 141 144 160 160 139 130 127 127 134 125 108 88 83 84 79 84 99 120 130 129 126 121 119 118 116 118 120 119 113 106 100 89 78 72 68 65 62 59 54 49 42 33 26 21 20 20 19 20 25 23 14 6 1 356 353 354 358 359 356 353 349 345 340 335 335 341 349
151 148 148 149 151 148 145 146 144 153 155 134 139 156 158 158 153 140 136 136 143 144 129 120 122 134 148 137 122 104 90 80 70 81 104 119 130 129 124 120 117 114 112 114 117 118 111 101 94 84 73 67 62 57 53 49 44 40 37 32 27 22 18 16 15 16 22 18 11 6 2 358 354 354 359 1 0 356 350 344 338 331 326 326 329
155 154 152 154 157 154 152 152 154 165 159 139 140 151 150 146 142 138 136 133 138 140 127 121 126 138 155 157 139 119 97 76 67 86 113 124 133 128 119 118 115 108 105 105 110 113 103 87 79 73 61 54 51 44 39 38 37 34 34 34 30 24 17 13 11 11 16 12 7 9 10 7 359 358 4 5 1 357 355 353 345 336 330 322 318
157 156 154 157 160 157 152 151 159 164 151 141 144 151 147 141 141 139 135 132 137 141 134 133 136 147 168 175 163 136 105 72 64 85 111 118 120 112 107 113 110 103 98 97 100 101 94 68 44 36 30 31 36 31 26 26 30 31 31 31 26 21 14 10 8 6 8 7 7 13 15 11 7 7 7 3 0 1 5 4 357 349 341 331 321
154 157 158 163 163 158 153 154 162 158 148 145 150 155 150 144 145 144 140 135 138 144 145 142 137 142 158 164 161 151 120 66 64 79 100 114 111 95 91 98 108 106 92 92 94 88 83 51 26 19 18 18 21 22 19 10 15 25 23 23 17 10 4 1 2 2 2 4 7 15 17 14 12 9 4 3 5 7 8 4 356 349 342 335 325
153 157 163 168 164 159 159 163 163 157 153 151 153 158 154 150 154 153 150 148 148 153 154 152 146 146 152 152 147 152 158 117 94 73 83 115 114 91 79 77 92 101 87 96 101 82 69 51 32 27 26 23 21 22 16 2 1 9 10 11 6 359 353 351 353 355 357 2 4 13 18 15 9 4 3 6 9 7 3 358 352 345 339 333 324
156 160 168 168 164 163 167 171 168 166 162 153 154 158 155 156 158 157 160 163 163 164 162 160 162 161 167 171 164 168 182 178 164 334 69 116 113 87 74 72 89 90 75 88 104 84 48 40 33 28 27 27 26 19 9 4 3 2 2 3 358 352 349 347 345 345 350 356 357 4 13 11 6 1 1 4 2 358 355 352 350 346 341 336 328
159 168 172 167 167 170 174 174 172 174 168 156 157 158 158 159 156 156 163 165 167 171 169 168 174 177 181 186 185 186 190 195 216 240 241 208 183 80 70 72 89 79 64 71 79 49 7 7 12 17 18 16 14 7 358 359 358 354 355 352 349 346 343 342 339 336 342 349 348 349 358 3 4 358 355 354 351 351 352 350 350 348 344 341 337
165 178 177 169 173 178 179 177 175 176 169 159 161 161 162 163 156 153 157 158 163 175 180 175 178 188 189 184 184 187 194 201 209 225 232 237 252 248 165 63 66 48 47 53 36 4 349 343 344 356 9 11 10 5 354 350 345 339 343 341 337 335 332 332 331 330 334 340 342 341 340 353 359 350 344 345 346 348 350 351 352 349 346 344 342
172 186 184 176 179 185 187 183 180 180 172 161 163 164 168 168 160 156 156 156 158 172 185 184 189 201 195 188 190 191 198 206 212 226 240 252 257 250 254 277 288 286 298 315 319 338 340 336 334 337 358 11 10 3 354 346 337 329 333 335 331 329 326 325 325 328 332 334 339 338 333 344 346 339 339 342 345 347 348 351 352 349 348 347 344
177 186 190 186 184 189 194 189 184 182 174 167 166 168 175 175 169 166 166 166 162 166 179 190 205 213 199 191 193 198 204 208 214 223 238 272 267 256 264 266 261 263 271 283 297 321 327 320 312 302 322 348 356 356 351 338 329 326 329 331 330 329 328 327 329 333 333 332 338 336 335 341 337 333 337 340 343 345 345 350 351 349 349 347 345
186 191 198 197 189 192 197 193 188 183 175 177 174 170 176 177 177 176 173 175 173 170 176 189 210 219 205 192 190 206 214 208 209 204 207 262 277 253 262 260 253 255 257 268 287 308 316 310 300 286 289 309 329 342 342 329 325 324 325 329 333 333 334 336 340 341 336 336 341 342 343 340 332 331 335 337 340 341 343 347 349 349 348 345 346
196 200 206 202 191 192 197 193 192 186 179 186 183 175 177 178 183 184 180 187 187 183 186 191 204 212 207 198 192 215 213 201 203 198 211 244 277 273 304 303 249 242 248 267 290 304 310 307 297 285 281 292 310 326 334 332 333 331 330 339 344 339 341 347 349 346 341 344 344 343 344 337 331 332 333 334 337 339 340 344 347 348 347 343 345
197 203 208 202 193 195 197 191 192 189 182 188 188 181 181 182 189 193 194 202 201 200 199 190 197 202 201 202 202 198 198 203 219 235 248 256 262 271 305 326 292 258 266 284 297 304 309 304 292 282 282 289 295 302 306 314 329 332 336 352 352 345 349 353 352 349 343 343 341 339 339 335 332 331 330 332 336 338 339 341 344 346 346 342 340
194 200 204 201 199 199 196 192 192 188 184 187 187 183 183 186 195 202 202 205 208 207 204 196 197 198 200 206 208 198 204 216 243 265 278 274 267 266 283 300 298 290 291 294 296 299 301 297 290 285 287 290 290 295 297 292 297 305 306 318 344 357 4 358 351 346 339 333 333 334 335 332 329 327 329 332 336 338 337 338 340 342 344 342 337
192 193 195 198 201 200 199 196 194 191 188 188 187 186 189 190 198 209 207 202 209 206 202 206 203 201 208 216 214 204 210 233 257 261 270 283 289 285 282 286 287 289 297 301 297 296 294 290 291 292 292 291 291 296 297 294 298 303 299 295 305 6 45 16 351 337 331 323 324 328 327 327 327 329 333 336 338 338 337 337 337 338 340 341 338
195 191 191 197 202 202 199 198 197 195 193 192 191 193 197 194 202 221 218 210 214 210 209 214 210 214 235 244 250 251 241 258 270 263 268 285 296 295 290 288 287 289 298 301 296 296 298 293 293 295 293 288 287 290 289 293 305 309 299 287 286 305 72 46 2 329 318 315 318 321 321 325 331 335 339 338 338 338 337 336 336 336 336 337 338
198 194 192 197 201 199 196 198 202 200 197 199 198 199 204 201 211 229 228 224 223 216 214 219 221 232 250 253 254 259 259 267 277 278 277 286 292 291 290 286 285 289 297 299 293 296 303 302 298 298 293 282 276 280 281 284 298 305 298 278 264 220 78 63 28 344 326 322 321 319 322 330 336 338 338 336 337 337 337 337 336 336 336 335 335
199 198 196 197 195 194 195 199 203 202 203 207 204 205 209 209 217 229 232 233 233 226 219 223 230 238 245 244 246 255 258 263 279 287 287 291 290 286 285 285 285 290 296 298 294 294 297 300 301 301 295 282 274 277 276 272 281 287 279 271 256 197 75 58 37 1 342 337 332 328 331 336 338 340 339 335 335 335 336 335 334 334 335 336 337
199 198 197 198 196 196 197 200 205 207 209 212 213 215 218 219 223 226 228 231 234 233 226 225 229 231 237 245 253 259 256 265 285 290 288 290 289 285 285 286 288 290 294 295 294 293 294 297 301 301 296 288 280 275 268 266 276 269 244 242 223 155 71 40 32 3 345 342 340 338 337 335 334 337 339 338 337 336 336 335 334 334 336 339 343
201 199 197 199 201 202 202 203 206 208 211 215 220 224 228 231 228 224 225 229 232 233 230 228 227 230 240 250 260 264 257 271 292 293 287 283 284 284 280 280 286 290 293 296 296 297 297 298 303 302 297 291 286 275 267 275 281 263 227 193 155 121 65 27 22 355 338 338 336 334 334 331 328 329 334 338 339 339 338 336 335 335 337 342 347
202 201 199 200 203 205 208 209 207 209 213 216 219 224 229 232 227 220 222 227 229 230 229 230 232 236 243 251 261 263 263 276 287 289 281 276 281 281 272 270 277 282 286 291 294 296 298 301 304 303 300 292 284 272 270 281 277 243 215 198 183 142 78 6 359 331 326 332 328 326 328 329 329 329 331 336 338 340 339 337 335 334 337 344 347
204 202 201 202 204 207 212 214 211 212 215 216 219 223 225 225 219 217 221 225 226 226 226 230 235 236 239 249 255 256 265 272 276 278 273 272 277 279 273 270 272 275 278 282 285 288 296 305 302 300 310 303 292 285 278 270 228 207 210 220 228 224 231 283 312 296 308 322 320 319 323 326 330 331 331 335 338 339 339 337 337 337 339 343 343
206 203 204 206 206 208 215 219 218 216 216 219 224 226 225 224 219 219 224 224 223 226 227 227 228 229 233 242 248 254 265 266 269 272 270 272 277 277 274 272 273 276 279 284 289 288 289 301 300 294 306 306 302 307 292 268 236 220 218 223 235 249 266 274 265 271 291 310 312 314 318 322 327 330 332 335 337 339 339 338 338 339 340 340 339
206 204 206 210 210 209 215 220 220 220 222 224 227 225 226 227 225 225 228 225 225 230 233 230 225 226 230 237 247 257 265 267 272 274 273 277 282 279 274 273 276 278 279 285 291 289 284 291 298 297 299 301 303 309 291 275 263 239 228 230 234 245 268 274 258 262 282 300 306 309 313 317 322 327 331 334 338 341 341 338 338 340 340 339 336
205 205 207 213 215 211 212 217 219 221 224 225 224 222 223 225 225 226 228 230 232 234 238 239 233 229 229 235 249 261 269 273 276 278 279 279 278 281 280 276 276 275 275 277 282 288 291 287 288 290 291 293 297 300 286 276 267 248 244 255 264 263 268 270 262 265 279 292 297 302 307 311 317 323 328 333 339 343 342 339 339 341 341 339 335
201 204 209 215 216 213 211 214 216 218 219 218 219 221 223 224 223 222 224 230 234 233 236 240 240 237 233 235 246 258 267 272 273 277 280 277 275 279 279 274 273 274 273 273 277 287 291 283 283 285 284 288 293 290 279 272 268 265 264 270 276 276 275 274 273 274 279 285 290 296 302 307 312 317 323 332 339 343 344 342 342 342 342 340 335
197 200 208 212 214 216 218 216 214 216 217 216 219 223 226 226 225 225 224 225 232 233 232 237 243 250 249 246 251 260 265 268 271 272 272 272 274 277 278 278 279 278 277 276 279 284 283 280 283 283 277 279 285 288 283 274 273 275 273 268 267 269 274 278 277 277 280 282 286 291 299 305 309 313 320 330 338 343 345 344 346 346 344 342 335
199 202 204 204 209 218 222 222 221 223 221 216 215 222 227 225 224 228 229 231 238 241 240 246 251 253 253 249 250 255 256 259 262 261 259 259 260 263 271 277 278 277 277 276 277 280 282 280 281 277 272 274 280 286 286 279 270 266 264 262 261 264 271 275 276 279 284 283 284 291 300 304 306 310 318 327 336 341 342 341 345 347 346 343 337
203 207 208 208 214 220 219 217 220 227 224 210 202 212 222 221 220 227 235 241 247 247 248 253 252 247 244 241 245 250 251 251 254 256 259 260 259 261 262 261 264 270 272 271 273 277 280 282 283 277 273 276 279 279 277 274 267 260 259 261 263 265 270 274 278 285 287 283 282 290 300 302 302 307 315 325 334 338 338 337 342 347 348 346 340
207 211 215 215 219 223 218 209 209 220 218 208 206 218 229 231 231 234 240 246 247 245 246 251 254 253 252 253 256 258 258 257 257 261 265 268 269 271 267 257 254 258 264 269 272 274 276 280 283 279 276 277 276 271 269 270 269 265 260 259 261 264 267 272 281 287 285 280 281 287 295 298 298 302 309 320 330 333 333 335 342 350 353 353 349
213 215 217 217 220 227 225 217 213 213 212 214 224 234 238 238 238 242 250 256 255 254 255 259 263 263 265 270 269 266 268 269 268 267 268 269 271 273 270 260 251 250 261 268 268 269 272 275 277 277 277 274 267 261 262 266 269 267 262 258 258 262 265 271 280 283 282 280 278 279 286 291 293 296 303 313 322 327 328 331 342 353 358 360 358
215 217 219 218 220 226 231 229 223 218 217 226 235 238 237 235 236 243 254 257 257 260 264 269 273 270 267 268 267 267 271 274 275 273 272 272 274 276 274 265 252 245 254 261 263 264 268 270 271 272 270 263 256 256 261 264 266 266 263 259 257 261 266 270 275 278 279 278 274 274 281 288 291 291 296 306 313 319 323 326 340 355 1 360 359
211 214 219 223 225 228 231 233 231 227 228 237 243 241 235 231 234 245 253 251 249 255 261 264 270 272 271 270 268 268 270 273 275 275 276 278 277 278 276 264 250 245 248 252 256 259 264 267 267 263 258 257 259 261 263 265 266 266 265 262 260 264 268 271 273 276 277 276 275 276 281 286 288 288 292 301 305 309 318 322 337 355 1 356 356
212 212 217 223 227 228 228 229 229 228 230 238 243 244 241 239 244 252 255 247 243 248 253 256 263 269 274 276 274 273 274 275 275 275 278 281 277 271 267 257 248 244 243 246 252 258 263 264 261 257 254 259 264 263 262 266 271 274 273 270 267 266 270 273 276 275 275 277 277 278 280 285 286 284 288 294 294 297 310 316 331 352 358 353 351
222 220 218 219 222 225 226 227 229 232 235 238 240 242 244 246 249 254 253 246 244 247 252 257 262 268 275 279 279 278 278 279 278 276 277 280 276 267 260 254 248 242 243 253 259 262 263 261 261 261 259 259 260 259 261 269 276 280 279 272 268 270 277 282 285 285 283 282 280 279 283 287 286 283 285 287 282 278 290 302 318 342 353 350 346
226 226 222 220 219 221 224 227 232 238 241 241 240 240 241 241 243 247 251 254 255 255 255 258 264 269 275 278 278 278 278 280 281 280 278 279 274 262 253 251 249 248 254 265 267 266 266 266 267 266 261 256 255 257 265 274 283 289 284 274 270 276 287 294 298 296 290 285 283 283 285 288 289 287 282 278 273 271 277 286 301 328 344 345 340
228 228 225 222 222 223 227 232 239 244 246 245 242 240 238 234 233 239 248 258 262 261 259 259 263 269 274 276 276 276 276 276 277 278 280 278 266 253 247 246 247 248 254 262 266 266 268 270 272 269 262 256 256 263 274 281 287 291 286 278 274 277 287 298 302 298 290 287 286 286 287 291 292 286 278 274 274 275 276 275 283 315 336 340 335
228 227 224 224 225 228 232 238 244 248 250 251 248 244 240 236 234 237 243 251 258 262 263 263 264 268 273 276 276 276 276 274 273 274 275 271 260 251 248 247 246 247 247 249 255 259 262 265 268 266 261 262 266 273 282 285 285 284 280 276 272 273 283 295 299 294 289 289 289 289 292 294 287 276 272 276 276 273 274 271 278 308 329 335 334
224 222 222 224 227 231 235 242 248 251 253 253 251 248 244 241 239 238 240 246 254 261 263 264 265 267 270 273 273 273 273 274 276 275 271 266 259 254 252 252 251 249 246 246 251 256 258 260 263 263 263 269 275 278 281 280 276 276 276 271 266 269 280 290 293 288 285 286 288 289 287 280 274 275 276 275 270 260 255 256 272 302 320 328 330
226 222 222 225 229 232 236 243 249 254 255 254 252 248 243 241 240 240 242 248 253 258 261 264 266 266 267 269 270 270 270 273 277 277 271 262 256 252 253 254 252 250 249 250 254 256 257 259 262 264 267 272 276 277 275 273 274 279 282 277 272 277 286 288 285 281 279 281 283 280 274 265 265 276 277 267 259 251 240 241 267 292 306 314 318
234 234 232 233 235 237 241 246 250 254 256 257 256 250 243 240 240 241 245 249 251 254 259 264 266 266 267 269 270 270 269 269 274 275 270 262 255 252 253 254 253 252 252 252 252 253 256 260 262 265 269 273 275 277 277 278 282 285 284 281 281 285 285 280 276 276 277 278 275 273 274 270 261 264 269 265 259 253 243 245 260 273 287 299 302
237 239 240 242 244 246 248 250 252 253 254 255 255 250 244 241 241 243 246 249 251 253 257 262 266 266 268 270 271 270 269 267 268 269 269 267 262 259 257 257 256 253 250 249 250 254 258 263 267 269 271 275 277 279 282 286 288 286 280 276 275 276 275 273 273 275 275 273 270 269 269 263 254 259 269 272 266 264 266 268 263 254 251 257 265
237 240 242 244 247 249 250 251 252 252 252 251 250 248 246 244 242 244 246 248 251 255 258 261 263 265 267 269 271 272 271 269 268 268 268 268 267 264 261 259 257 254 251 248 250 258 262 265 269 271 271 274 277 281 289 293 291 284 273 268 269 270 271 271 269 266 265 264 265 262 256 251 254 264 277 281 280 281 283 280 265 245 233 235 248
237 238 241 244 246 249 249 250 250 249 248 247 246 246 245 243 243 244 245 246 250 255 259 260 263 266 268 270 273 274 274 274 269 265 265 267 267 264 262 260 257 254 253 252 254 260 264 264 265 264 265 269 274 286 298 298 290 282 275 273 276 277 277 275 267 259 257 257 259 258 256 257 261 267 273 278 283 280 269 262 253 242 241 246 256
238 239 242 244 247 248 247 247 246 245 245 245 246 245 243 242 244 246 246 248 252 256 260 262 265 267 269 272 274 275 277 277 272 266 266 267 263 257 253 253 254 252 252 256 260 261 261 259 257 255 257 261 269 287 298 294 289 290 289 286 283 279 275 273 263 254 252 250 252 256 262 267 273 273 269 269 271 260 241 245 256 262 266 270 272